Location: Shenandoah County Park
(38.9356°N, 78.4524°W)
Time: 07:04:12
(UTC-05:00)

Envisat - Pass Details

Date: 05 October 2023
Orbit: 762 x 764 km, 98.3° (Epoch: 07 December)

Event Time Altitude Azimuth Distance (km) Brightness Sun altitude
Rises 05:53:14 0° 359° (N) 3,238 6.3 -16.4°
Reaches altitude 10° 05:55:53 10° 347° (NNW) 2,308 5.4 -15.9°
Maximum altitude 05:59:57 25° 293° (WNW) 1,513 4.0 -15.1°
Enters shadow 06:01:12 23° 271° (W) 1,601 4.0 -14.8°
